Home > Weather > Vieux Fort > Past weeks

Flag for Saint Lucia Past Weather in Vieux Fort, Saint Lucia — Yesterday and Last 2 Weeks

Now
86 °F

Partly sunny.


Feels Like: 97 °F
Forecast: 82 / 85 °F
Wind: 23 mph from East

Location: Hewanorra International Airport

Current Time: May 31, 2016 at 4:08:25 PM

Latest Report: May 31, 2016 at 3:00 PM


Visibility: N/A

Pressure: 29.89 "Hg

Humidity: 75%

Dew Point: 77 °F

Location of Vieux FortLocation

Past Weather in Vieux Fort — Graph

°F

Vieux Fort Temperature Yesterday

Maximum temperature yesterday: 88 °F (at 12:00 PM)
Minimum temperature yesterday: 81 °F (at 5:00 AM)
Average temperature yesterday: 83 °F

High & Low Weather Summary for the Past Weeks

 TemperatureHumidityPressure
High88 °F (May 16, 3:00 PM)100% (May 21, 5:00 AM)30.09 "Hg (May 21, 5:00 AM)
Low77 °F (May 21, 5:00 AM)62% (May 25, 10:00 AM)29.89 "Hg (May 26, 5:00 PM)
Average83 °F78%29.99 "Hg
* Reported May 16 3:00 PM — May 31 3:00 PM, Vieux Fort, Weather by CustomWeather, © 2016

Note: Actual official high and low records may vary slightly from our data, if they occured in-between our weather recording intervals... More about our weather records

Advertising

Vieux Fort Weather History for the Previous 24 Hours

Scroll right to see more
 ConditionsComfort  
Time TempWeatherWind HumidityBarometerVisibility
3:00 PM
Tue, May 31
86 °FPartly sunny.23 mph75%29.89 "HgN/A
2:00 PM86 °FScattered clouds.21 mph75%29.92 "HgN/A
12:00 PM86 °FPassing clouds.23 mph75%29.95 "HgN/A
11:00 AM86 °FScattered clouds.23 mph75%29.95 "HgN/A
10:00 AM88 °FBroken clouds.23 mph70%29.95 "HgN/A
9:00 AM86 °FBroken clouds.23 mph75%29.95 "HgN/A
8:00 AM82 °FScattered clouds.21 mph79%29.95 "HgN/A
7:00 AM82 °FBroken clouds.22 mph79%29.92 "HgN/A
6:00 AM82 °FPartly sunny.21 mph79%29.92 "HgN/A
5:00 AM82 °FPassing clouds.23 mph79%29.92 "HgN/A
4:00 AM82 °FPartly cloudy.23 mph79%29.92 "HgN/A
3:00 AM82 °FPassing clouds.18 mph79%29.92 "HgN/A
2:00 AM82 °FPassing clouds.21 mph79%29.92 "HgN/A
1:00 AM82 °FPassing clouds.20 mph84%29.95 "HgN/A
12:00 AM82 °FPassing clouds.23 mph79%29.95 "HgN/A
11:00 PM
Mon, May 30
82 °FPassing clouds.22 mph79%29.98 "HgN/A
10:00 PM82 °FPassing clouds.15 mph79%29.98 "HgN/A
9:00 PM82 °FPartly cloudy.21 mph79%29.98 "HgN/A
8:00 PM82 °FPassing clouds.18 mph84%29.95 "HgN/A
7:00 PM82 °FPassing clouds.17 mph79%29.92 "HgN/A
6:00 PM82 °FBroken clouds.20 mph84%29.92 "HgN/A
5:00 PM82 °FPartly sunny.16 mph84%29.92 "HgN/A
4:00 PM82 °FSprinkles. Passing clouds.17 mph84%29.92 "HgN/A
Weather by CustomWeather, © 2016

See weather overviewHow to use our weather pages